To NAV CANADA Home Page Login to a new session Search on AWWS site Feedback and Comments Disclaimer Vers la page française équivalente Tips FAQ What's new on the site To the Forecasts and Observations / NOTAM section To "File a Flight Plan" website Publications and other links Update of the User's profile FIC Telephone Numbers My Weather Data Folder Route Weather Data Regional Weather Data Local Weather Data To the Forecasts and Observations / NOTAM section
Request Generated 01/17/2017 at 04:48:11 UTC . Weather information available at that time is displayed.

METAR/TAF

NAUJAAT/NU    

LWIS CYUT 170400Z AUTO 17017KT M21/M24 A2953=
LWIS CYUT 170300Z AUTO 16015KT M21/M24 A2958=
LWIS CYUT 170200Z AUTO 15013KT M22/M25 A2962=

*** REMARK        : Forecast period has ended; this was the last TAF issued
*** REMARQUE : La période de prévision est échue; ceci était le dernier TAF qui a été émis
TAF AMD CYUT 162223Z 1622/1623 16015KT 3/4SM -SN BLSN OVC008 TEMPO
1622/1623 3SM IC OVC015
RMK NXT FCST WILL BE ISSUED AT 171445Z=
Your time UTC time
Weather data provided by Environment Canada and NAV CANADA